BV5AB-33 Weather Reports


time (UTC)temp
F
wind
direction
speed
knots
gust
knots
rain 1hr
in
rain 24hr
in
rain mn
in
humidity
%
barometer
mb
20260505124954 72 0 0.0 0.0 0.07 4.44 1.10 85 983.3
20260505124454 72 0 0.0 0.0 0.07 4.44 1.09 85 983.8
20260505123954 72 0 0.0 0.0 0.07 4.43 1.07 85 983.7
20260505123455 72 0 0.0 0.0 0.06 4.42 1.06 82 983.7
20260505122954 72 0 0.0 0.0 0.07 4.42 1.06 83 983.6
20260505122454 72 0 0.0 0.0 0.07 4.41 1.05 83 983.7
20260505121954 72 0 0.0 0.0 0.08 4.41 1.05 85 983.6
20260505120954 72 0 0.0 0.0 0.08 4.39 1.04 85 983.6
20260505120454 72 0 0.0 0.0 0.08 4.39 1.04 83 983.7
20260505115454 72 0 0.0 0.0 0.09 4.39 1.04 82 983.7
20260505114955 73 0 0.0 0.0 0.08 4.38 1.03 82 983.8
20260505114454 73 0 0.0 0.0 0.08 4.38 1.02 82 983.8
20260505113454 73 0 0.0 0.0 0.08 4.38 1.00 82 983.5
20260505112955 73 0 0.0 0.0 0.07 4.37 0.99 82 983.6
20260505112454 73 0 0.0 0.0 0.07 4.36 0.98 82 983.5
20260505111955 73 0 0.0 0.0 0.06 4.35 0.97 82 983.5
20260505111454 73 0 0.0 0.0 0.05 4.33 0.96 82 983.6
20260505110954 73 0 0.0 0.0 0.05 4.35 0.96 81 983.6
20260505110455 73 0 0.0 0.0 0.05 4.35 0.96 81 983.7
20260505101954 73 0 0.0 0.0 3.67 4.33 0.91 81 982.9
20260505100955 73 0 0.0 0.0 3.67 4.35 0.91 80 982.8
20260505100454 73 0 0.0 0.0 3.69 4.36 0.91 79 982.9
20260505095955 74 0 0.0 0.0 3.67 4.35 0.90 80 983.0
20260505095454 74 0 0.0 0.0 3.69 4.35 0.90 79 983.2
20260505094955 74 0 0.0 0.0 3.67 4.35 0.89 80 982.9
20260505094454 74 0 0.0 0.0 3.67 4.35 0.87 79 983.2
20260505093956 74 0 0.0 0.0 3.66 4.33 0.86 79 983.0
20260505093454 74 0 0.0 0.0 3.67 4.32 0.85 79 983.0
20260505092955 74 0 0.0 0.0 3.67 4.32 0.84 78 983.0
20260505092455 74 0 0.0 0.0 0.34 1.00 0.84 19 983.2
20260505091955 74 0 0.0 0.0 0.09 0.77 0.58 79 983.0
20260505091455 74 0 0.0 0.0 0.11 0.77 0.58 79 983.0
20260505090954 74 0 0.0 0.0 0.12 0.77 0.58 80 982.7
20260505090455 74 0 0.0 0.0 0.12 1.94 0.57 79 982.8
20260505085955 74 0 0.0 0.0 0.11 2.02 0.56 79 982.7
20260505085455 74 0 0.0 0.0 0.12 2.02 0.56 79 982.7
20260505084954 74 0 0.0 0.0 0.17 2.02 0.56 78 982.8
20260505084455 75 0 0.0 0.0 0.20 2.01 0.54 79 982.6
20260505083956 75 0 0.0 0.0 0.26 2.01 0.54 79 982.5
20260505083454 74 0 0.0 0.0 0.30 1.98 0.52 79 982.7
20260505082455 74 0 0.0 0.0 0.32 1.96 0.50 79 982.9
20260505081954 75 0 0.0 0.0 0.32 1.95 0.48 78 983.0
20260505081455 75 0 0.0 0.0 0.32 1.94 0.47 78 982.6
20260505080954 75 0 0.0 0.0 0.32 1.93 0.46 77 982.7
20260505080455 75 0 0.0 0.0 0.31 1.91 0.45 78 982.7
20260505075954 75 0 0.0 0.0 0.32 1.91 0.45 78 982.5
20260505075455 75 0 0.0 0.0 0.31 1.90 0.44 78 982.5
20260505074955 75 0 0.0 0.0 0.26 1.85 0.39 78 982.8
20260505074455 75 0 0.0 0.0 0.21 1.81 0.34 77 982.9
20260505073955 75 0 0.0 0.0 0.15 1.75 0.28 77 983.1
20260505072955 76 0 0.0 0.0 0.06 1.65 0.19 76 983.2
20260505072455 76 263 0.0 0.9 0.04 1.63 0.17 76 983.0
20260505071955 76 263 0.0 0.9 0.04 1.63 0.17 76 982.9
20260505071455 76 0 0.0 0.0 0.02 1.62 0.15 76 983.0
20260505070955 76 0 0.0 0.0 0.01 1.61 0.14 76 982.9
20260505070455 76 0 0.0 0.0 0.01 1.61 0.14 76 982.9
20260505065955 76 0 0.0 0.0 0.00 1.59 0.13 75 982.8
20260505065455 76 0 0.0 0.0 0.00 1.59 0.13 75 982.9
20260505064955 77 0 0.0 0.0 0.00 1.59 0.13 75 983.0
20260505063955 77 0 0.0 0.0 0.00 1.59 0.13 74 983.2
20260505063455 77 0 0.0 0.0 0.01 1.59 0.13 73 983.1
20260505062954 77 0 0.0 0.0 0.01 1.59 0.13 73 983.1
20260505062455 78 0 0.0 0.0 0.01 1.59 0.13 72 983.1
20260505061955 78 0 0.0 0.0 0.04 1.59 0.13 72 983.2
20260505061455 78 0 0.0 0.0 0.04 1.59 0.13 71 983.2
20260505060955 78 0 0.0 0.0 0.05 1.59 0.13 72 983.3
20260505060455 78 0 0.0 0.0 0.05 1.59 0.13 73 983.2
20260505055956 78 0 0.0 0.0 0.05 1.59 0.13 74 983.4
20260505054455 77 0 0.0 0.0 0.05 1.59 0.13 75 983.4
20260505053955 77 0 0.0 0.0 0.05 1.59 0.13 76 983.8
20260505053455 77 0 0.0 0.0 0.04 1.58 0.12 76 983.6
20260505052455 77 0 0.0 0.0 0.02 1.57 0.12 75 983.8
20260505051955 77 0 0.0 0.0 0.01 1.56 0.09 75 984.0
20260505051456 77 0 0.0 0.0 0.00 1.55 0.08 75 983.8
20260505050954 77 0 0.0 0.0 0.00 1.55 0.08 75 984.0
20260505041455 78 0 0.0 0.0 0.00 1.55 0.08 74 984.4
20260505040455 78 0 0.0 0.0 0.00 1.55 0.08 74 984.4
20260505035956 78 0 0.0 0.0 0.00 1.55 0.08 74 984.7
20260505035455 78 0 0.0 0.0 0.00 1.55 0.08 75 984.5
20260505034956 77 0 0.0 0.0 0.00 1.55 0.08 75 984.5
20260505034455 77 0 0.0 0.0 0.00 1.55 0.08 75 984.6
20260505033955 77 0 0.0 0.0 0.00 1.55 0.08 74 984.6
20260505033455 77 0 0.0 0.0 0.00 1.55 0.08 74 984.5
20260505032955 77 0 0.0 0.0 0.00 1.55 0.08 74 984.5
20260505032455 77 0 0.0 0.0 0.00 1.55 0.08 75 984.6
20260505031956 77 0 0.0 0.0 0.00 1.55 0.08 74 984.5
20260505031455 77 0 0.0 0.0 0.01 1.55 0.08 75 984.6
20260505030955 77 0 0.0 0.0 0.01 1.55 0.08 75 984.7
20260505025955 77 0 0.0 0.0 0.04 1.55 0.08 75 984.7
20260505025455 76 0 0.0 0.0 0.04 1.55 0.08 76 985.1
20260505024956 76 0 0.0 0.0 0.05 1.55 0.08 76 985.2
20260505024455 76 0 0.0 0.0 0.06 1.55 0.08 76 984.8
20260505023955 76 0 0.0 0.0 0.06 1.55 0.08 76 985.1
20260505022955 76 0 0.0 0.0 0.06 1.55 0.08 75 985.0
20260505022456 76 0 0.0 0.0 0.06 1.55 0.08 76 984.7
20260505021956 76 0 0.0 0.0 0.05 1.54 0.07 78 984.9
20260505021456 76 0 0.0 0.0 0.05 1.54 0.07 78 984.7
20260505020955 76 0 0.0 0.0 0.05 1.54 0.07 78 984.7
20260505015956 75 0 0.0 0.0 0.02 1.51 0.05 78 984.7
20260505014456 76 0 0.0 0.0 0.00 1.49 0.02 76 984.8
20260505013955 76 0 0.0 0.0 0.00 1.49 0.02 77 985.0
20260505013456 75 0 0.0 0.0 0.00 1.49 0.02 77 984.8
20260505012956 75 0 0.0 0.0 0.00 1.49 0.02 76 984.9
20260505012455 76 0 0.0 0.0 0.00 1.49 0.02 76 984.8
20260505011956 76 0 0.0 0.0 0.00 1.49 0.02 76 984.8
20260505011455 76 0 0.0 0.0 0.00 1.49 0.02 76 985.0
20260505010956 76 0 0.0 0.0 0.00 1.49 0.02 75 984.8
20260505010455 76 0 0.0 0.0 0.00 1.49 0.02 75 984.8
20260505005455 76 0 0.0 0.0 0.00 1.49 0.02 75 984.9
20260505004956 76 0 0.0 0.0 0.00 1.49 0.02 75 984.6
20260505003955 76 0 0.0 0.0 0.01 1.49 0.02 75 984.5
20260505003456 76 0 0.0 0.0 0.01 1.49 0.02 75 984.7
20260505002956 76 0 0.0 0.0 0.01 1.49 0.02 75 984.6
20260505002455 76 0 0.0 0.0 0.01 1.49 0.02 75 984.4
20260505001956 76 0 0.0 0.0 0.01 1.49 0.02 75 984.5
20260505001456 75 0 0.0 0.0 0.01 1.49 0.02 76 984.3
20260505000956 75 0 0.0 0.0 0.01 1.49 0.02 76 984.6
20260505000456 75 0 0.0 0.0 0.01 1.49 0.02 77 984.6
20260504235456 75 0 0.0 0.0 0.01 1.49 0.02 76 984.3
20260504234956 75 0 0.0 0.0 0.01 1.49 0.02 77 984.3
20260504234455 75 0 0.0 0.0 0.00 1.48 0.01 77 984.3
20260504233955 74 0 0.0 0.0 0.00 1.48 0.01 77 984.4
20260504233456 74 0 0.0 0.0 0.00 1.48 0.01 77 984.4
20260504232955 74 0 0.0 0.0 0.00 1.48 0.01 77 984.3
20260504232456 75 0 0.0 0.0 0.00 1.48 0.01 76 984.1
20260504231956 75 0 0.0 0.0 0.00 1.48 0.01 76 984.3
20260504231456 75 0 0.0 0.0 0.00 1.48 0.01 76 984.2
20260504230956 75 0 0.0 0.0 0.00 1.48 0.01 76 984.1
20260504230455 75 0 0.0 0.0 0.00 1.48 0.01 76 984.1
20260504225956 75 0 0.0 0.0 0.00 1.48 0.01 75 984.0
20260504225456 75 0 0.0 0.0 0.00 1.48 0.01 75 983.9
20260504224956 75 0 0.0 0.0 0.00 1.48 0.01 75 983.9
20260504224456 75 0 0.0 0.0 0.00 1.48 0.01 75 983.9
20260504223955 75 0 0.0 0.0 0.00 1.48 0.01 76 983.9
20260504223456 75 0 0.0 0.0 0.00 1.48 0.01 76 984.2
20260504222956 75 0 0.0 0.0 0.00 1.48 0.01 77 983.9
20260504221956 75 0 0.0 0.0 0.00 1.48 0.01 77 983.9
20260504221456 75 0 0.0 0.0 0.00 1.48 0.01 77 983.8
20260504220956 75 0 0.0 0.0 0.00 1.48 0.01 77 983.9
20260504215956 75 0 0.0 0.0 0.00 1.48 0.01 77 983.7
20260504215456 75 0 0.0 0.0 0.00 1.48 0.01 77 983.5
20260504214956 75 0 0.0 0.0 0.00 1.48 0.01 77 983.6
20260504213956 75 0 0.0 0.0 0.00 1.48 0.01 77 983.4
20260504212956 75 0 0.0 0.0 0.00 1.48 0.01 77 983.4
20260504212456 75 0 0.0 0.0 0.00 1.48 0.01 78 983.6
20260504210956 75 0 0.0 0.0 0.00 1.48 0.01 78 983.5
20260504210456 75 0 0.0 0.0 0.00 1.48 0.01 78 983.4
20260504205956 75 0 0.0 0.0 0.00 1.48 0.01 77 983.3
20260504205456 75 0 0.0 0.0 0.00 1.48 0.01 77 983.4
20260504204956 75 0 0.0 0.0 0.00 1.48 0.01 78 983.2
20260504204456 75 0 0.0 0.0 0.00 1.48 0.01 78 983.2
20260504203955 75 0 0.0 0.0 0.00 1.48 0.01 78 983.4
20260504203456 75 0 0.0 0.0 0.00 1.48 0.01 78 983.3
20260504202456 75 0 0.0 0.0 0.00 1.48 0.01 78 983.0
20260504201456 75 0 0.0 0.0 0.00 1.48 0.01 78 982.9
20260504200955 75 0 0.0 0.0 0.00 1.48 0.01 78 983.0
20260504200456 75 0 0.0 0.0 0.00 1.48 0.01 78 983.0
20260504195956 75 0 0.0 0.0 0.00 1.48 0.01 78 983.1
20260504195456 75 0 0.0 0.0 0.00 1.48 0.01 78 983.0
20260504194956 75 0 0.0 0.0 0.00 1.48 0.01 78 983.0
20260504194456 75 0 0.0 0.0 0.00 1.48 0.01 78 983.0
20260504193956 75 0 0.0 0.0 0.00 1.48 0.01 78 983.2
20260504193456 75 0 0.0 0.0 0.00 1.48 0.01 77 983.2
20260504192956 75 0 0.0 0.0 0.00 1.48 0.01 77 983.1
20260504192456 76 0 0.0 0.0 0.00 1.48 0.01 76 983.1
20260504191956 76 0 0.0 0.0 0.00 1.48 0.01 76 983.1
20260504190456 75 0 0.0 0.0 0.00 1.48 0.01 77 982.9
20260504185956 75 0 0.0 0.0 0.00 1.48 0.01 77 983.0
20260504185456 75 0 0.0 0.0 0.00 1.48 0.01 77 982.8
20260504184456 75 0 0.0 0.0 0.00 1.48 0.01 77 982.8
20260504183956 75 0 0.0 0.0 0.00 1.48 0.01 77 982.9
20260504183456 75 0 0.0 0.0 0.00 1.48 0.01 77 982.5
20260504182957 75 0 0.0 0.0 0.00 1.48 0.01 77 982.7
20260504182456 75 0 0.0 0.0 0.00 1.48 0.01 77 982.9
20260504181956 75 0 0.0 0.0 0.00 1.48 0.01 76 982.9
20260504181456 76 0 0.0 0.0 0.00 1.48 0.01 76 983.0
20260504180456 76 0 0.0 0.0 0.00 1.48 0.01 76 983.4
20260504175956 75 0 0.0 0.0 0.00 1.48 0.01 77 983.1
20260504175457 75 0 0.0 0.0 0.01 1.48 0.01 77 983.0
20260504174956 75 0 0.0 0.0 0.01 1.48 0.01 76 983.4
20260504174456 75 0 0.0 0.0 0.01 1.48 0.01 76 983.3
20260504173956 75 0 0.0 0.0 0.01 1.48 0.01 76 983.2
20260504173456 75 0 0.0 0.0 0.01 1.48 0.01 76 983.4
20260504172956 75 0 0.0 0.0 0.01 1.48 0.01 76 983.4
20260504172456 75 0 0.0 0.0 0.01 1.48 0.01 76 983.5
20260504171956 75 0 0.0 0.0 0.01 1.48 0.01 76 983.5
20260504171456 75 0 0.0 0.0 0.01 1.48 0.01 76 983.6
20260504170956 75 0 0.0 0.0 0.01 1.48 0.01 76 983.7
20260504170456 75 0 0.0 0.0 0.01 1.48 0.01 76 983.8
20260504150957 77 0 0.0 0.0 0.00 1.46 0.28 73 984.4
20260504140456 77 0 0.0 0.0 0.00 1.46 0.28 73 984.3